[[{"header":{"parameterUnit":"m.s-1","parameterCategory":1,"la1":30.2992,"la2":30.254,"lo1":-89.0895,"lo2":-89.0443,"dy":0.0025,"dx":0.0025,"nx":19,"ny":19,"refTime":"2026-04-30T03:00:00:Z","depth":0,"parameterNumber":2,"parameterNumberName":"U-component_of_WINDS"},"data":[0,0,0,-4.2562,-4.2562,-4.2532,-4.2532,-4.252,-4.252,0,0,0,0,0,0,0,0,0,0,0,-4.2587,-4.2587,-4.2562,-4.2562,-4.2532,-4.2532,-4.252,-4.252,0,0,0,0,0,0,0,0,0,0,0,-4.2586,-4.2587,-4.2588,-4.2562,-4.2532,-4.2532,-4.252,-4.2533,0,0,0,0,0,0,0,0,0,0,-4.2557,-4.2595,-4.2587,-4.2588,-4.2562,-4.2532,-4.2532,-4.2533,-4.2532,-4.2545,0,-4.256,0,-4.254,-4.2521,-4.2521,0,0,0,-4.255,-4.2596,-4.2574,-4.2588,-4.2562,-4.2532,-4.2542,-4.2532,-4.2531,-4.2544,-4.2559,-4.2558,-4.254,-4.2521,-4.2521,-4.2632,-4.2633,0,0,-4.2552,-4.2589,-4.2575,-4.2574,-4.2581,-4.2543,-4.2541,-4.2531,-4.2551,-4.2559,-4.2557,-4.254,-4.2521,-4.2521,-4.2631,-4.2632,0,0,0,-4.2564,-4.2591,-4.2569,-4.2576,-4.2568,-4.2543,-4.2541,-4.2551,-4.2541,-4.2557,-4.254,-4.2521,-4.2521,-4.2629,-4.2631,-4.2718,0,0,0,-4.2565,-4.2598,-4.257,-4.2593,-4.2569,-4.2559,-4.2562,-4.2542,-4.2539,-4.254,-4.2521,-4.2522,-4.2628,-4.263,-4.2713,-4.2751,0,0,0,-4.2583,-4.26,-4.2602,-4.2595,-4.2584,-4.2559,-4.2547,-4.254,-4.2529,-4.2521,-4.2522,-4.2627,-4.263,-4.2709,-4.2744,-4.2789,0,0,0,-4.2614,-4.268,-4.2604,-4.2672,-4.2584,-4.2614,-4.2547,-4.2567,-4.2571,-4.2521,-4.2628,-4.2631,-4.2707,-4.2739,-4.2784,-4.283,-4.2854,0,0,-4.2718,-4.2694,-4.2732,-4.2662,-4.2715,-4.2616,-4.2681,-4.2649,-4.2615,-4.2628,-4.263,-4.2715,-4.2743,-4.2788,-4.2983,-4.3002,0,0,0,-4.2777,-4.2804,-4.281,-4.2815,-4.2793,-4.2777,-4.2731,-4.2719,-4.2729,-4.2629,-4.2744,-4.276,-4.2785,-4.2805,-4.2821,-4.2838,-4.2643,-4.2643,-4.2643,-4.2977,-4.2929,-4.2987,-4.2936,-4.2943,-4.2896,-4.2897,-4.2873,-4.2823,-4.2852,-4.2853,-4.2978,-4.3003,-4.3015,-4.3033,-4.2878,-4.2878,-4.2879,-4.2879,-4.3122,-4.3151,-4.3086,-4.3117,-4.3068,-4.3094,-4.3053,-4.3017,-4.3034,-4.2972,-4.2991,-4.2924,-4.3037,-4.3051,-4.2885,-4.2884,-4.2883,-4.2883,-4.2882,-4.3243,-4.3248,-4.3235,-4.3238,-4.3246,-4.3195,-4.3214,-4.3169,-4.3127,-4.3146,-4.3141,-4.314,-4.3129,-4.3148,-4.3149,-4.3149,-4.315,-4.315,-4.315,-4.3371,-4.3353,-4.3374,-4.3359,-4.3356,-4.3348,-4.3305,-4.3301,-4.3285,-4.3251,-4.3251,-4.3196,-4.3059,-4.3022,-4.3156,-4.3155,-4.3154,-4.3154,-4.3153,-4.3527,-4.3485,-4.3518,-4.3516,-4.3494,-4.3505,-4.345,-4.3447,-4.3438,-4.3449,-4.3393,-4.33,-4.3271,-4.3258,-4.3227,-4.3405,-4.3405,-4.3405,-4.3405,-4.3625,-4.3608,-4.3631,-4.3631,-4.3626,-4.358,-4.3618,-4.3587,-4.3547,-4.3538,-4.3507,-4.3465,-4.3454,-4.3431,-4.3414,-4.3384,-4.3598,-4.3598,-4.3598,-4.3716,-4.3697,-4.3737,-4.3698,-4.3679,-4.3663,-4.3697,-4.3699,-4.3646,-4.3605,-4.353,-4.3522,-4.3452,-4.3433,-4.3384,-4.3359,-4.3303,0,0]},{"header":{"parameterUnit":"m.s-1","parameterCategory":1,"la1":30.2992,"la2":30.254,"lo1":-89.0895,"lo2":-89.0443,"dy":0.0025,"dx":0.0025,"nx":19,"ny":19,"refTime":"2026-04-30T03:00:00:Z","depth":0,"parameterNumber":3,"parameterNumberName":"V-component_of_WINDS"},"data":[0,0,0,1.801,1.8014,1.82,1.8201,1.8428,1.843,0,0,0,0,0,0,0,0,0,0,0,1.7948,1.7949,1.801,1.8014,1.82,1.8201,1.8427,1.843,0,0,0,0,0,0,0,0,0,0,0,1.7947,1.7949,1.795,1.8015,1.82,1.8201,1.8427,1.8291,0,0,0,0,0,0,0,0,0,0,1.8112,1.8047,1.7948,1.795,1.8016,1.8199,1.8201,1.8285,1.8299,1.8339,0,1.8371,0,1.8404,1.8444,1.8445,0,0,0,1.802,1.8035,1.8091,1.795,1.8018,1.8199,1.8118,1.8293,1.831,1.8359,1.8374,1.8383,1.8408,1.8446,1.8447,1.8654,1.8655,0,0,1.801,1.7977,1.808,1.8102,1.8071,1.8112,1.8123,1.8303,1.8319,1.8375,1.8389,1.8411,1.8447,1.8449,1.8654,1.8655,0,0,0,1.7977,1.797,1.8023,1.8092,1.8126,1.8117,1.813,1.8311,1.8331,1.8391,1.8414,1.8448,1.8451,1.8653,1.8654,1.866,0,0,0,1.7971,1.7951,1.8018,1.8,1.8123,1.8221,1.8134,1.8318,1.834,1.8413,1.8448,1.8453,1.8652,1.8654,1.8658,1.8669,0,0,0,1.7938,1.7947,1.7971,1.7998,1.8076,1.8219,1.8249,1.8324,1.8353,1.8445,1.8454,1.8652,1.8653,1.8657,1.8667,1.8718,0,0,0,1.7894,1.7972,1.797,1.8065,1.8074,1.8219,1.8248,1.8357,1.8436,1.8449,1.8652,1.8654,1.8656,1.8665,1.8716,1.8759,1.8772,0,0,1.7974,1.798,1.8039,1.8043,1.818,1.8193,1.8332,1.8435,1.8472,1.8592,1.8598,1.8659,1.8667,1.8718,1.885,1.886,0,0,0,1.8053,1.8096,1.8139,1.8212,1.8292,1.8364,1.8448,1.8487,1.859,1.8527,1.8689,1.8695,1.8727,1.8749,1.8758,1.8789,1.8661,1.8661,1.8661,1.8123,1.8167,1.8268,1.8335,1.8406,1.8493,1.8556,1.8623,1.8646,1.8684,1.8722,1.8796,1.882,1.8827,1.8859,1.8743,1.8743,1.8743,1.8743,1.8248,1.8317,1.8345,1.8455,1.8501,1.8594,1.8681,1.8694,1.8789,1.8771,1.8801,1.8781,1.8837,1.8868,1.8744,1.8744,1.8744,1.8744,1.8744,1.8303,1.8344,1.8388,1.8501,1.8582,1.8646,1.8737,1.8775,1.8811,1.884,1.8887,1.8888,1.8897,1.8859,1.8859,1.8859,1.886,1.886,1.886,1.8345,1.8394,1.8466,1.8557,1.861,1.8685,1.8773,1.8827,1.8897,1.8919,1.8919,1.8942,1.8832,1.8807,1.8864,1.8864,1.8863,1.8863,1.8862,1.8466,1.8444,1.8554,1.8607,1.8719,1.88,1.8845,1.8953,1.9003,1.9047,1.9062,1.8972,1.8982,1.8976,1.8956,1.9048,1.9048,1.9048,1.9048,1.8517,1.8523,1.8646,1.873,1.8815,1.8868,1.8994,1.9062,1.913,1.9165,1.9156,1.913,1.9121,1.9137,1.9127,1.9109,1.9239,1.9239,1.9239,1.8596,1.8613,1.8713,1.8778,1.8867,1.8944,1.9065,1.9162,1.9234,1.9248,1.9194,1.9186,1.9145,1.9129,1.9147,1.913,1.9098,0,0]}]]